Погода в Шаховском

Россия / Тульская область     54°02′04″N   38°05′09″E
темп.,
°C
ветер,
м/с
пор.,
м/с
влажн.,
%
обл.,
%
осадки,
мм/ч
давл.,
гПа
погр.,
м
15 мая, сб
сб1500:00+15юв31094100 2.9 1010205
03:00+14юв3595100 3.8 100988
06:00+16ююз359714 0.5 1008115
09:00+20ююз6108291 0.5 1009640
12:00+21ююз6860100 0.0 10101275
15:00+21ююз79581 0.0 10101829
18:00+19ююз610696 0.5 1010893
21:00+14ю412861 0.6 1011333
16 мая, вс
вс1600:00+13ююз512900 0.0 1012325
03:00+12ююз49951 0.0 1013183
06:00+12ююз49915 0.0 1014258
09:00+17ююз58715 0.0 1014601
12:00+20ююз68625 0.1 10141274
15:00+20ююз58623 0.4 10141494
18:00+20юз356625 0.0 1014380
21:00+16сз1180100 0.0 101511
17 мая, пн
пн1700:00+14всв228034 0.0 101513
03:00+13в358879 0.0 101571
06:00+14в398870 0.3 1014207
09:00+19в69768 0.3 1013429
12:00+23вюв79625 0.0 1012785
15:00+25юв69570 0.0 10111094
18:00+23вюв612674 0.0 1010597
21:00+19вюв6168032 0.0 1010421
18 мая, вт
вт1800:00+18юв6167651 0.0 1009405
03:00+16юв51376100 0.0 1008297
06:00+15юв5137997 0.0 1007304
09:00+19юв71368100 0.0 1007497
12:00+22ююв9136299 0.0 10061065
15:00+23ююв71267100 0.0 10061534
18:00+21ю6117330 0.6 1006974
21:00+16ююв37905 0.8 1007147
19 мая, ср
ср1900:00+15юв4119393 0.0 1006265
03:00+14юв4993100 0.0 1006196
06:00+15юв5128836 0.0 1005354
09:00+18ююв71379100 0.7 10031127
12:00+15ю81188100 1.1 1002878
15:00+17ю91180100 4.6 10031105
18:00+16ю710814 2.0 1002978
21:00+11зюз81491100 2.8 1005750